Date,TemperatureHighF,TemperatureAvgF,TemperatureLowF,DewpointHighF,DewpointAvgF,DewpointLowF,HumidityHigh,HumidityAvg,HumidityLow,PressureMaxIn,PressureMinIn,WindSpeedMaxMPH,WindSpeedAvgMPH,GustSpeedMaxMPH,PrecipitationSumIn
2013-12-1,57.4,48.6,41.9,52.1,47.3,41.6,99,96,81,30.32,30.00,7,2,9,0.04
2013-12-2,55.8,49.7,43.7,51.5,47.9,42.9,99,94,79,30.00,29.76,8,3,12,0.00
2013-12-3,62.6,47.3,35.8,47.5,41.4,32.6,99,83,39,30.03,29.84,6,1,7,0.00
2013-12-4,66.7,57.5,48.0,65.7,57.1,47.5,99,99,95,30.12,30.00,8,1,9,0.34
2013-12-5,74.3,62.3,49.3,70.4,61.4,49.0,99,97,86,30.18,30.09,10,2,16,0.01
2013-12-6,75.4,69.1,65.1,70.7,67.8,64.8,99,96,84,30.16,30.06,17,5,18,0.00
2013-12-7,69.4,54.6,43.2,69.1,54.3,42.9,99,99,95,30.40,30.06,14,7,18,0.34
2013-12-8,48.7,44.5,42.4,48.2,44.2,42.1,99,99,98,30.38,30.25,14,6,17,0.13
2013-12-9,69.8,55.6,44.1,67.8,55.0,43.8,99,98,92,30.27,30.06,7,2,9,0.00
2013-12-10,67.6,55.0,34.7,66.4,54.7,34.4,99,99,95,30.30,29.83,16,4,22,0.20
2013-12-11,50.2,37.0,26.1,38.3,31.1,25.9,99,83,47,30.46,30.28,8,1,9,0.01
2013-12-12,46.8,33.3,25.0,34.7,29.9,24.8,99,89,47,30.39,30.24,13,1,17,0.00
2013-12-13,50.9,34.9,23.7,34.7,27.7,22.6,99,80,35,30.43,30.30,7,1,11,0.00
2013-12-14,66.9,51.4,29.8,65.0,48.3,29.6,99,90,60,30.33,29.74,15,5,20,1.87
2013-12-15,61.7,53.2,38.7,61.4,52.0,38.4,99,96,81,30.04,29.67,9,3,14,0.18
2013-12-16,57.6,41.2,29.3,44.7,35.8,29.1,99,84,46,30.19,30.04,8,1,10,0.00
2013-12-17,60.3,47.1,34.0,51.6,42.5,33.7,99,86,62,30.18,29.93,21,4,21,0.00
2013-12-18,54.1,41.8,26.2,42.2,31.7,23.1,99,71,34,30.32,29.95,18,4,18,0.00
2013-12-19,59.5,42.0,25.9,44.7,36.8,25.7,99,85,54,30.36,30.27,12,2,12,0.00
2013-12-20,71.6,54.3,39.9,63.6,52.2,39.6,99,93,71,30.28,30.15,10,2,10,0.00
2013-12-21,73.6,64.2,53.6,68.5,62.9,53.3,99,96,81,30.20,29.88,14,4,14,0.00
2013-12-22,76.3,69.4,66.0,71.9,68.2,65.7,99,96,85,30.16,30.09,14,6,18,0.64
2013-12-23,74.8,68.5,60.4,72.2,67.8,60.1,99,98,90,30.14,30.02,13,6,19,0.19
2013-12-24,60.4,43.3,31.8,60.1,41.2,29.1,99,93,72,30.39,30.03,14,4,21,0.33
2013-12-25,43.3,37.3,29.7,38.1,31.8,25.0,95,80,70,30.51,30.37,12,5,16,0.00
2013-12-26,45.0,42.3,38.1,44.7,41.7,37.8,99,98,94,30.37,30.22,9,3,12,0.05
2013-12-27,52.9,41.5,31.5,40.1,36.3,31.3,99,84,50,30.41,30.30,13,3,17,0.00
2013-12-28,61.5,45.5,30.6,48.4,37.7,30.4,99,77,40,30.40,30.16,7,2,9,0.00
2013-12-29,69.4,62.1,48.9,99.9,60.1,43.6,99,93,80,30.16,29.71,21,6,21,0.46
2013-12-30,59.9,49.8,40.5,51.4,47.3,40.2,99,92,65,30.10,29.90,6,1,7,0.00
2013-12-31,53.8,44.0,33.6,45.7,40.3,33.3,99,89,50,30.36,30.00,10,2,13,0.00